SL-8 R/B

Satellite information

Favourite Embed

Satellite Type and Status

ROCKET BODYIN ORBIT

Key statistics

Satellite SL-8 R/B at a glance.

Uptime

15739

Days in orbit

Revolutions

≈ 14.4

Per day

Orbit

LEO

Low Earth Orbit

Inclination

74.0

Latest

Satellite identification and parameters

Extended collection of information and parameters for SL-8 R/B.

Object identification

Identified? True

Debris? False

Object name: SL-8 R/B

International designator: 1982-109B

Object number (NORAD): 13649

Object ID (CCSDS): 13649

Country: COMMONWEALTH OF INDEPENDENT STATES (CIS)

Current information (Y/N): Y

RCS size: LARGE

Orbital parameters

Period: 100.1 minutes

Inclination: 74.001 deg

SMA: 7141.398 km

Apoapsis: 776.567 km

Periapsis: 749.959 km

RAAN: 54.9632 deg

Eccentricy: 0.00186297

Argument of periapsis: 207.9197 deg

Mean anomaly: 217.702 deg

Mean motion: 14.38559799 rev/day

Mean motion (dot): 0.0000042 rev/day2

B* drag term: 0.00014576499 1/REarth

Two-line elements (TLE)

Creation date: Dec. 12, 2025, 10:14 a.m.

Reference frame: TEME

Reference center: EARTH

Epoch: Dec. 12, 2025, 7:38 a.m. UTC

TLE line 0: 0 SL-8 R/B

TLE line 1: 1 13649U 82109B 25346.31848108 .00000420 00000-0 14576-3 0 9998

TLE line 2: 2 13649 74.0010 54.9632 0018630 207.9197 217.7020 14.38559799256809

Live tracking on map

Real-time ground track for satellite SL-8 R/B.

In-orbit conjunctions

A list of the most updated potential collisions computed for object SL-8 R/B.

Target Orbit TCA Probability of collision Miss distance Type
DMSP 5D-2 F14 DEB SSO 2025-10-14 05:16:15 0.0001461462 480.0 (m) DEBRIS
NOAA 16 DEB SSO 2025-07-27 19:26:09 0.0004352169 677.0 (m) DEBRIS
COSMOS 2251 DEB LEO 2025-07-26 11:20:30 0.0001242225 600.0 (m) DEBRIS
FENGYUN 1C DEB SSO 2025-05-16 05:26:46 0.0001666444 710.0 (m) DEBRIS
CZ-6A DEB LEO 2025-02-05 23:20:38 0.0004398505 217.0 (m) DEBRIS

Associated space launch

Military communications satellite

SL-8 R/B was lifted into orbit during the mission ‘Kosmos-3M | Strela-2M 30’, on board a Kosmos-3M space rocket.

The launch took place on Nov. 11, 1982, 6:14 a.m. from 132/1 (132L).

For more information about the launch, click the button.

Launch to space Kosmos-3M | Strela-2M 30
Kosmos-3M | Strela-2M 30

Agency: N/A

Status: Launch Successful

Launch date: Nov. 11, 1982, 6:14 a.m. UTC

Rocket: Kosmos-3M

Launch pad: 132/1 (132L)

Location: Plesetsk Cosmodrome, Russian Federation

...

Latest news about this satellite

There are no fresh news available about this satellite. Check back as we update our databases every day.


Newsletter sign-up

Weekly statistics, charts and insights to help you stay on top of the space industry.